SCP
0 0 0 0 0 0 0 0 0 0 0 0 0 0 0 0 0 0 0 0 0 0
0 0 0 0 0 0 0 0 0 0 0 0 0 0 0 0 0 0 0 0 0 0
0 0 0 0 0 0 0 0 0 0 0 0 0 0 0 0 0 0 0 0 0 0
0 0 0 0 0 0 0 0 0 0 0 0 0 0 0 0 0 0 0 0 0 0
0 0 0 0 0 0 0 0 0 0 0 0 0 0 0 0 0 0 0 0 0 0
0 0 0 0 0 0 0 0 0 0 0 0 0 0 0 0 0 0 0 0 0 0
0 0 0 0 0 0 0 0 0 0 0 0 0 0 0 0 -0 -0 0 -0 0 0
0 0 0 0 0 0 0 0 0 0 0 0 0 0 0 -0 -0 -0 -0 0 -0 -0
0 0 0 0 0 0 0 0 0 0 0 0 0 -0 -0 -0 -0 0 0 0 0 0
0 0 0 0 0 0 0 0 0 0 0 0 -0 -0 -0 -0 0 0 0 0 0 0
0 0 0 0 0 0 -0 -0 0 -0 0 -0 -0 -0 0 0 0 0 0 0 0 0
0 0 0 0 0 0 0 0 0 0 0 -0 -0 -0 0 0 0 0 0 0 0 -0
0 0 0 0 0 0 0 0 0 0 0 0 -0 -0 0 0 0 0 0 0 0 -0
0 0 0 -0 0 0 0 0 0 0 0 0 0 0 -0 0 0 0 0 0 -0 0
Wind_Speed_500mb
47 37 36 36 43 44 45 41 40 38 39 55 50 38 38 40 41 38 38 39 41 40
42 45 46 47 41 40 39 39 39 42 50 53 39 35 36 39 36 32 34 32 29 29
41 52 48 40 42 40 38 40 41 42 56 41 36 35 35 32 34 29 25 25 25 25
48 46 39 40 39 35 34 37 40 52 44 37 36 31 31 30 27 24 25 24 20 19
41 42 39 39 35 31 34 37 48 47 36 35 29 30 29 25 24 23 18 19 17 16
42 37 39 35 30 31 38 47 48 42 29 30 25 25 24 20 20 19 17 20 22 20
34 38 34 31 31 34 46 46 41 32 22 21 19 20 19 16 16 18 22 26 28 23
37 33 32 28 31 47 39 38 30 21 21 16 13 15 16 13 19 24 23 24 20 18
34 33 28 33 48 36 35 37 25 19 13 8 10 13 9 19 18 24 26 25 24 33
32 31 35 46 39 41 35 23 19 15 10 10 12 8 12 20 19 24 28 31 20 39
30 37 42 40 35 35 27 18 15 15 14 16 16 14 15 14 23 29 31 31 40 34
42 41 35 33 39 32 27 18 17 15 20 19 18 17 14 13 18 21 22 28 32 34
35 29 35 34 32 31 29 27 21 19 22 22 22 21 18 16 17 21 22 26 30 34
27 29 31 26 28 22 25 24 23 26 26 27 27 27 19 15 18 19 19 22 25 32
Wind_Direction_500mb
311 314 318 314 314 315 314 311 306 307 305 314 313 311 299 299 301 295 290 284 280 280
309 312 317 317 314 312 310 305 307 300 311 316 315 307 302 303 305 298 296 293 283 280
316 315 315 317 315 312 309 311 304 308 314 315 311 307 308 313 313 302 300 296 292 284
316 315 318 317 313 309 310 306 311 314 315 314 316 312 315 313 312 307 308 303 304 300
315 319 319 315 314 309 306 310 320 316 315 316 318 317 317 313 315 317 313 308 299 298
321 320 318 319 314 311 311 318 317 318 315 319 319 325 325 316 321 319 317 313 308 299
324 323 325 322 317 319 320 319 320 319 323 321 322 341 347 330 336 334 334 330 319 307
328 331 329 324 323 321 337 343 328 331 333 329 339 358 343 348 347 353 348 343 352 338
338 339 332 324 324 337 343 332 343 339 349 339 1 356 356 6 5 11 26 24 44 44
346 341 330 333 334 331 330 332 346 5 39 23 19 42 33 33 35 38 42 37 70 51
348 340 348 348 347 354 352 4 27 52 36 53 57 57 41 52 49 59 52 50 56 64
350 356 0 5 11 20 24 40 62 64 49 46 54 42 51 69 56 63 62 58 71 78
2 5 17 18 24 23 54 69 62 59 57 52 57 47 57 67 42 65 74 68 74 90
10 22 18 34 30 52 60 62 65 64 59 65 55 54 59 57 65 67 83 82 88 97
Wind_Speed_850mb
47 37 36 36 43 44 45 41 40 38 39 55 50 38 38 40 41 38 38 39 41 40
42 45 46 47 41 40 39 39 39 42 50 53 39 35 36 39 36 32 34 32 29 29
41 52 48 40 42 40 38 40 41 42 56 41 36 35 35 32 34 29 25 25 25 25
48 46 39 40 39 35 34 37 40 52 44 37 36 31 31 30 27 24 25 24 20 19
41 42 39 39 35 31 34 37 48 47 36 35 29 30 29 25 24 23 18 19 17 16
42 37 39 35 30 31 38 47 48 42 29 30 25 25 24 20 20 19 17 20 22 20
34 38 34 31 31 34 46 46 41 32 22 21 19 20 19 16 16 18 22 26 28 23
37 33 32 28 31 47 39 38 30 21 21 16 13 15 16 13 19 24 23 24 20 18
34 33 28 33 48 36 35 37 25 19 13 8 10 13 9 19 18 24 26 25 24 33
32 31 35 46 39 41 35 23 19 15 10 10 12 8 12 20 19 24 28 31 20 39
30 37 42 40 35 35 27 18 15 15 14 16 16 14 15 14 23 29 31 31 40 34
42 41 35 33 39 32 27 18 17 15 20 19 18 17 14 13 18 21 22 28 32 34
35 29 35 34 32 31 29 27 21 19 22 22 22 21 18 16 17 21 22 26 30 34
27 29 31 26 28 22 25 24 23 26 26 27 27 27 19 15 18 19 19 22 25 32
Wind_Direction_850mb
311 314 318 314 314 315 314 311 306 307 305 314 313 311 299 299 301 295 290 284 280 280
309 312 317 317 314 312 310 305 307 300 311 316 315 307 302 303 305 298 296 293 283 280
316 315 315 317 315 312 309 311 304 308 314 315 311 307 308 313 313 302 300 296 292 284
316 315 318 317 313 309 310 306 311 314 315 314 316 312 315 313 312 307 308 303 304 300
315 319 319 315 314 309 306 310 320 316 315 316 318 317 317 313 315 317 313 308 299 298
321 320 318 319 314 311 311 318 317 318 315 319 319 325 325 316 321 319 317 313 308 299
324 323 325 322 317 319 320 319 320 319 323 321 322 341 347 330 336 334 334 330 319 307
328 331 329 324 323 321 337 343 328 331 333 329 339 358 343 348 347 353 348 343 352 338
338 339 332 324 324 337 343 332 343 339 349 339 1 356 356 6 5 11 26 24 44 44
346 341 330 333 334 331 330 332 346 5 39 23 19 42 33 33 35 38 42 37 70 51
348 340 348 348 347 354 352 4 27 52 36 53 57 57 41 52 49 59 52 50 56 64
350 356 0 5 11 20 24 40 62 64 49 46 54 42 51 69 56 63 62 58 71 78
2 5 17 18 24 23 54 69 62 59 57 52 57 47 57 67 42 65 74 68 74 90
10 22 18 34 30 52 60 62 65 64 59 65 55 54 59 57 65 67 83 82 88 97